Location: DARK SKY Beskydy - Park tmavé oblohy, www.darkskybeskydy.cz
(49.4926°N, 18.5016°E)
Time: 12:46:23
(UTC+01:00)

A-11 Canister half - All Passes

Search period start: 22 February 2024 00:00
Search period end: 03 March 2024 00:00
Orbit: 1512 x 1687 km, 47.2° (Epoch: 21 February)

Date Brightness Start Highest point End Pass type
(mag) Time Alt. Az. Time Alt. Az. Time Alt. Az.
22 Feb - 00:36:58 10° S 00:43:47 21° SE 00:50:31 10° E visible
22 Feb - 02:37:26 10° SW 02:47:06 52° SSE 02:56:32 10° ENE visible
22 Feb - 04:41:32 10° WSW 04:51:37 78° S 05:01:20 10° E visible
22 Feb - 06:46:33 10° W 06:56:25 70° SSW 07:05:53 10° ESE daylight
22 Feb - 08:51:45 10° WNW 09:00:20 36° SW 09:08:38 10° SSE daylight
23 Feb - 00:14:25 10° SSE 00:20:54 19° SE 00:27:20 10° E visible
23 Feb - 02:14:32 10° SW 02:24:09 50° SSE 02:33:33 10° ENE visible
23 Feb - 04:18:32 10° WSW 04:28:37 77° S 04:38:23 10° E visible
23 Feb - 06:23:32 10° W 06:33:26 71° SSW 06:42:58 10° ESE daylight
23 Feb - 08:28:42 10° WNW 08:37:26 38° SW 08:45:54 10° SSE daylight
23 Feb - 10:38:03 10° WSW 10:40:00 11° WSW 10:41:56 10° SW daylight
23 Feb - 23:51:56 10° SSE 23:58:03 18° SE 00:04:06 10° E visible
24 Feb - 01:51:39 10° SW 02:01:12 48° SSE 02:10:34 10° ENE visible
24 Feb - 03:55:31 10° WSW 04:05:37 77° S 04:15:25 10° E visible
24 Feb - 06:00:30 10° W 06:10:28 73° SSW 06:20:02 10° ESE visible
24 Feb - 08:05:39 10° WNW 08:14:32 40° SW 08:23:07 10° SSE daylight
24 Feb - 10:14:01 10° WSW 10:17:11 12° WSW 10:20:19 10° SW daylight
24 Feb - 23:29:29 10° SSE 23:35:10 17° SE 23:40:49 10° E visible
25 Feb - 01:28:46 10° SW 01:38:15 46° SE 01:47:34 10° ENE visible
25 Feb - 03:32:30 10° WSW 03:42:37 76° S 03:52:26 10° E visible
25 Feb - 05:37:28 10° W 05:47:29 74° SSW 05:57:06 10° ESE visible
25 Feb - 07:42:36 10° WNW 07:51:38 42° SW 08:00:20 10° SSE daylight
25 Feb - 09:50:21 10° W 09:54:22 13° WSW 09:58:19 10° SSW daylight
25 Feb - 23:07:07 10° SSE 23:12:19 15° SE 23:17:29 10° E visible
26 Feb - 01:05:55 10° SSW 01:15:18 45° SE 01:24:34 10° ENE visible
26 Feb - 03:09:30 10° WSW 03:19:37 75° SSE 03:29:28 10° E visible
26 Feb - 05:14:27 10° W 05:24:29 75° SSW 05:34:09 10° ESE visible
26 Feb - 07:19:34 10° WNW 07:28:43 44° SW 07:37:33 10° SSE daylight
26 Feb - 09:26:51 10° W 09:31:32 15° SW 09:36:09 10° SSW daylight
26 Feb - 22:44:50 10° SSE 22:49:27 14° ESE 22:54:04 10° E night (unlit)
27 Feb - 00:43:03 10° SSW 00:52:22 43° SE 01:01:33 10° ENE visible
27 Feb - 02:46:31 10° WSW 02:56:38 74° SSE 03:06:29 10° E visible
27 Feb - 04:51:26 10° W 05:01:30 76° S 05:11:12 10° ESE visible
27 Feb - 06:56:32 10° WNW 07:05:48 46° SW 07:14:44 10° SE daylight
27 Feb - 09:03:27 10° W 09:08:42 16° SW 09:13:52 10° SSW daylight
27 Feb - 22:22:41 10° SE 22:26:36 13° ESE 22:30:32 10° E night (unlit)
28 Feb - 00:20:13 10° SSW 00:29:26 41° SE 00:38:32 10° ENE visible
28 Feb - 02:23:31 10° WSW 02:33:38 72° SSE 02:43:31 10° E visible
28 Feb - 04:28:25 10° W 04:38:30 77° S 04:48:16 10° ESE visible
28 Feb - 06:33:30 10° WNW 06:42:52 48° SSW 06:51:54 10° SE daylight
28 Feb - 08:40:08 10° W 08:45:52 17° SW 08:51:30 10° SSW daylight
28 Feb - 22:00:44 10° SE 22:03:46 12° ESE 22:06:47 10° ESE night (unlit)
28 Feb - 23:57:25 10° SSW 00:06:30 39° SE 00:15:31 10° ENE visible
29 Feb - 02:00:32 10° WSW 02:10:38 71° SSE 02:20:32 10° E visible
29 Feb - 04:05:23 10° W 04:15:31 78° S 04:25:18 10° ESE visible
29 Feb - 06:10:27 10° WNW 06:19:56 50° SSW 06:29:04 10° SE daylight
29 Feb - 08:16:51 10° W 08:23:01 19° SW 08:29:03 10° SSW daylight
29 Feb - 21:39:21 10° SE 21:40:55 10° ESE 21:42:30 10° ESE night (unlit)
29 Feb - 23:34:36 10° SSW 23:43:34 37° SE 23:52:28 10° ENE visible
01 Mar - 01:37:32 10° WSW 01:47:38 70° SSE 01:57:33 10° E visible
01 Mar - 03:42:21 10° W 03:52:31 78° S 04:02:20 10° ESE visible
01 Mar - 05:47:25 10° WNW 05:56:59 52° SSW 06:06:14 10° SE visible
01 Mar - 07:53:37 10° W 08:00:10 20° SW 08:06:34 10° S daylight
01 Mar - 23:11:48 10° SSW 23:20:38 36° SE 23:29:26 10° ENE visible
02 Mar - 01:14:34 10° WSW 01:24:38 68° SSE 01:34:34 10° E visible
02 Mar - 03:19:20 10° W 03:29:30 79° S 03:39:22 10° ESE visible
02 Mar - 05:24:23 10° WNW 05:34:03 54° SSW 05:43:22 10° SE visible
02 Mar - 07:30:25 10° W 07:37:18 22° SW 07:44:03 10° S daylight
02 Mar - 22:49:02 10° SSW 22:57:43 34° SE 23:06:22 10° ENE visible
